Weather in Castlebar

Ireland     53°51′14″N   9°17′21″W
temp.,
°C
wind,
m/s
gust,
m/s
humid.,
%
clouds,
%
prec.,
mm/h
press.,
hPa
HPBL,
m
6 march, sat
sat600:00+4sse587799 0.0 1034479
03:00+2sse378499 0.0 1033238
06:00−1se369177 0.0 1033170
09:00+2sse477896 0.0 1032336
12:00+6s576994 0.0 1033770
15:00+8s456852 0.0 1031871
18:00+5ssw248140 0.0 103181
21:00+3s238829 0.0 103048
7 march, sun
sun700:00+2s239115 0.0 103073
03:00+2s349421 0.0 1028106
06:00+3sse359153 0.0 1028145
09:00+4s358857 0.0 1027226
12:00+8ssw347855 0.0 1027477
15:00+10sw347569 0.0 1026681
18:00+7sw248582 0.0 1025126
21:00+6sw229278 0.0 102551
8 march, mon
mon800:00+5ssw469371 0.0 1025151
03:00+4ssw479343 0.0 1023184
06:00+5ssw498660 0.0 1022407
09:00+6s61186100 0.0 1021571
12:00+6s71189100 0.6 1020515
15:00+7s51094100 1.8 1019557
18:00+7ssw3695100 2.0 1018240
21:00+6ssw3395100 0.1 101865
9 march, tue
tue900:00+6ssw2393100 0.2 101740
03:00+5ssw359499 0.0 101690
06:00+5s4795100 0.0 1014173
09:00+7s71294100 0.2 1011626
12:00+9ssw81283100 0.4 10081072
15:00+7s101991100 2.1 10011162
18:00+10ssw132393100 11.4 9951224
21:00+8wsw7148668 0.4 996938
10 march, wed
wed1000:00+6wsw6147952 0.5 9981281
03:00+5wsw51281100 0.1 10001086
06:00+4wsw497887 0.1 1000373
09:00+5ssw597978 0.0 999920
12:00+6s7118888 0.9 994877
15:00+7s81796100 4.4 985841
18:00+10sw112286100 6.5 9801631
21:00+8ssw132485100 1.2 9751647